This is the latest recevied weather packets stored in our database for station/object N6DZK. If no packets are shown the sender has not sent any weather packets the latest 10 day(s).
| Time | Temp. | Humidity | Pressure | Rain* | Wind** | Luminosity | Snow |
|---|---|---|---|---|---|---|---|
| 1777767024 | 21.67° C | 56% | 1010.9 hPa | 0 mm | - | 367 W/m² | - |
| 1777766722 | 22.22° C | 53% | 1010.7 hPa | 0 mm | - | 441 W/m² | - |
| 1777766418 | 21.67° C | 57% | 1010.8 hPa | 0 mm | - | 454 W/m² | - |
| 1777766115 | 22.22° C | 54% | 1010.9 hPa | 0 mm | - | 422 W/m² | - |
| 1777765813 | 22.78° C | 53% | 1010.8 hPa | 0 mm | - | 445 W/m² | - |
| 1777765509 | 22.78° C | 53% | 1010.9 hPa | 0 mm | - | 452 W/m² | - |
| 1777765207 | 22.22° C | 52% | 1010.8 hPa | 0 mm | - | 470 W/m² | - |
| 1777764906 | 21.67° C | 53% | 1010.8 hPa | 0 mm | - | 443 W/m² | - |
| 1777764604 | 21.67° C | 55% | 1010.9 hPa | 0 mm | - | 583 W/m² | - |
| 1777764300 | 21.67° C | 55% | 1010.9 hPa | 0 mm | - | 457 W/m² | - |
| 1777763997 | 21.67° C | 54% | 1011 hPa | 0 mm | - | 551 W/m² | - |
| 1777763694 | 21.67° C | 55% | 1011.3 hPa | 0 mm | - | 475 W/m² | - |
| 1777763392 | 21.67° C | 56% | 1011.1 hPa | 0 mm | - | 585 W/m² | - |
| 1777763090 | 21.67° C | 57% | 1011.3 hPa | 0 mm | - | 598 W/m² | - |
| 1777762788 | 21.67° C | 56% | 1011.6 hPa | 0 mm | - | 622 W/m² | - |
| 1777762484 | 21.67° C | 56% | 1011.6 hPa | 0 mm | - | 517 W/m² | - |
| 1777762181 | 21.11° C | 56% | 1011.6 hPa | 0 mm | - | 607 W/m² | - |
| 1777761877 | 21.67° C | 55% | 1011.7 hPa | 0 mm | - | 443 W/m² | - |
| 1777761574 | 21.67° C | 58% | 1011.6 hPa | 0 mm | - | 662 W/m² | - |
| 1777761272 | 21.67° C | 57% | 1011.8 hPa | 0 mm | - | 723 W/m² | - |
| 1777760970 | 21.11° C | 58% | 1011.9 hPa | 0 mm | - | 737 W/m² | - |
| 1777760667 | 21.11° C | 58% | 1012.2 hPa | 0 mm | - | 803 W/m² | - |
| 1777760362 | 21.11° C | 57% | 1012.3 hPa | 0 mm | - | 622 W/m² | - |
| 1777760059 | 21.67° C | 58% | 1012.5 hPa | 0 mm | - | 636 W/m² | - |
| 1777759756 | 21.11° C | 57% | 1012.5 hPa | 0 mm | - | 734 W/m² | - |
* Rain latest hour (hover to see other rain measurements)
** Current wind speed in m/s (hover to see current wind gust speed)